Richmond, VA

1:16 PM EDT on July 25, 2017 (GMT -0400)
Richmond International

Weather History for KRIC - November, 2011

Change the Weather History Date:

Monday, November 7, 2011

  Actual Average Record
Temperature  
Mean Temperature 53 °F 53 °F  
Max Temperature 69 °F 65 °F 79 °F (1975)
Min Temperature 37 °F 42 °F 22 °F (1967)
Degree Days  
Heating Degree Days 12 12  
Month to date heating degree days 100 79  
Since 1 July heating degree days 314 312  
Cooling Degree Days 0 0  
Month to date cooling degree days 0 0  
Year to date cooling degree days 1898 1543  
Growing Degree Days 2 (Base 50)    
Moisture  
Dew Point 43 °F    
Average Humidity 69    
Maximum Humidity 96    
Minimum Humidity 42    
Precipitation  
Precipitation 0.00 in 0.10 in 1.99 in (1997)
Month to date precipitation 0.31 0.76  
Year to date precipitation 41.64 37.86  
Snow  
Snow 0.00 in 0.00 in 0.10 in (1953)
Month to date snowfall 0.0 0.0  
Since 1 July snowfall 0.0 0.0  
Snow Depth 0.00 in    
Sea Level Pressure  
Sea Level Pressure 30.37 in    
Wind  
Wind Speed 1 mph (SSW)    
Max Wind Speed 9 mph    
Max Gust Speed 13 mph    
Visibility 9 miles    
Events Fog    
T = Trace of Precipitation, MM = Missing Value Source: NWS Daily Summary

Daily Weather History Graph

Daily Weather History Graph

Search for Another Location

Airport or City:

Trip Planner

Search our weather history database for the weather conditions in past years. The results will help you decide how hot, cold, wet, or windy it might be!

Date:

Astronomy

Nov. 07, 2011 Rise Set
Actual Time 6:40 AM EST 5:05 PM EST
Civil Twilight 6:12 AM EST 5:32 PM EST
Nautical Twilight 5:41 AM EST 6:03 PM EST
Astronomical Twilight 5:10 AM EST 6:34 PM EST
Moon 3:13 PM EST (11/7) 3:43 AM EST (11/7)
Length of Visible Light 11h 19m
Length of Day
10h 25m
Waxing Gibbous, 91% of the Moon is Illuminated
Nov 7
Waxing Gibbous
Nov 10
Full
Nov 18
Last Quarter
Nov 25
New
Dec 2
First Quarter

Hourly Weather History & Observations

Time (EST) Temp. Windchill Dew Point Humidity Pressure Visibility Wind Dir Wind Speed Gust Speed Precip Events Conditions
12:54 AM 44.1 °F - 41.0 °F 89% 30.41 in 10.0 mi Calm Calm - N/A   Clear
1:54 AM 44.1 °F - 41.0 °F 89% 30.40 in 9.0 mi Calm Calm - N/A   Clear
2:54 AM 42.1 °F - 39.0 °F 89% 30.39 in 10.0 mi Calm Calm - N/A   Clear
3:54 AM 41.0 °F - 37.9 °F 89% 30.39 in 10.0 mi Calm Calm - N/A   Partly Cloudy
4:54 AM 39.0 °F - 37.0 °F 93% 30.40 in 7.0 mi Calm Calm - N/A   Clear
5:54 AM 37.4 °F 34.9 °F 35.6 °F 93% 30.39 in 10.0 mi SE 3.5 mph - N/A   Partly Cloudy
6:03 AM 37.4 °F 34.9 °F 35.6 °F 93% 30.38 in 7.0 mi SSE 3.5 mph - N/A Fog Patches of Fog
6:54 AM 37.4 °F - 35.6 °F 93% 30.39 in 7.0 mi Calm Calm - N/A Fog Patches of Fog
7:54 AM 44.1 °F - 42.1 °F 93% 30.42 in 10.0 mi Calm Calm - N/A   Partly Cloudy
8:54 AM 52.0 °F - 48.0 °F 86% 30.43 in 8.0 mi Calm Calm - N/A   Clear
9:54 AM 57.2 °F - 48.2 °F 72% 30.41 in 10.0 mi Calm Calm - N/A   Clear
10:54 AM 61.0 °F - 48.0 °F 62% 30.42 in 10.0 mi SW 3.5 mph - N/A   Clear
11:54 AM 64.4 °F - 46.4 °F 52% 30.37 in 10.0 mi WSW 9.2 mph - N/A   Partly Cloudy
12:54 PM 66.9 °F - 45.0 °F 45% 30.35 in 10.0 mi NW 4.6 mph - N/A   Partly Cloudy
1:54 PM 66.9 °F - 44.1 °F 44% 30.34 in 10.0 mi Variable 3.5 mph - N/A   Partly Cloudy
2:54 PM 66.9 °F - 43.0 °F 42% 30.33 in 10.0 mi SW 3.5 mph - N/A   Clear
3:54 PM 66.9 °F - 44.1 °F 44% 30.32 in 10.0 mi Calm Calm - N/A   Clear
4:54 PM 62.1 °F - 45.0 °F 53% 30.32 in 10.0 mi Calm Calm - N/A   Clear
5:54 PM 55.9 °F - 46.0 °F 69% 30.32 in 10.0 mi Calm Calm - N/A   Clear
6:54 PM 52.0 °F - 46.0 °F 80% 30.33 in 10.0 mi Calm Calm - N/A   Clear
7:54 PM 50.0 °F - 45.0 °F 83% 30.32 in 10.0 mi Calm Calm - N/A   Clear
8:54 PM 46.4 °F - 44.6 °F 93% 30.32 in 10.0 mi Calm Calm - N/A   Clear
9:54 PM 46.0 °F - 43.0 °F 89% 30.34 in 10.0 mi Calm Calm - N/A   Clear
10:54 PM 45.0 °F - 43.0 °F 93% 30.34 in 10.0 mi Calm Calm - N/A   Clear
11:54 PM 44.1 °F - 42.1 °F 93% 30.32 in 7.0 mi Calm Calm - N/A   Clear